Wind_Speed
6 6 6 7 6 6 5 4 3 3 2 1 1 2 3 4 5 6 7 8 9 10 11 12 12 13 14 14 15 15 16 17 17 18 18 19 19 20 20 20 20 20 20 20 21 21 21 22 22
5 5 5 6 6 5 4 4 3 3 2 1 1 1 2 3 4 5 6 7 8 9 10 11 12 13 14 15 15 16 17 17 18 19 19 19 20 20 20 20 21 21 21 21 22 22 22 22 23
3 4 4 4 4 4 3 3 3 2 2 2 2 2 3 4 5 5 6 7 8 9 10 11 12 13 13 14 15 16 16 17 18 19 19 20 20 20 20 20 21 21 21 22 22 22 22 23 23
2 2 2 3 3 2 2 2 2 2 3 3 4 4 4 5 6 6 7 8 9 10 11 12 12 13 14 15 15 16 17 17 18 19 20 20 20 21 21 21 21 21 21 22 22 22 23 23 23
2 2 2 2 2 1 1 2 2 3 4 4 5 5 6 7 7 8 8 9 10 10 11 12 13 14 14 15 16 17 17 18 19 19 19 20 20 20 21 21 21 21 21 22 22 22 22 23 23
3 3 3 3 3 3 3 3 3 4 4 5 6 6 7 7 8 8 9 10 10 11 12 12 13 14 15 16 17 17 18 19 19 19 20 20 20 21 21 21 21 22 22 22 22 22 23 23 24
6 5 5 5 5 5 5 5 5 5 6 7 7 8 8 8 9 9 10 10 11 12 13 14 14 15 15 16 17 18 18 19 20 20 20 20 20 21 21 22 22 22 23 23 23 24 24 25 25
8 7 7 7 7 7 7 7 7 8 8 9 9 9 10 10 10 10 11 12 12 13 14 14 15 16 16 17 17 18 19 19 20 20 20 20 21 21 22 22 22 23 23 24 24 25 26 26 27
10 9 9 9 9 9 9 9 9 9 10 10 11 11 11 12 12 12 12 13 13 14 15 15 16 16 17 18 18 19 19 20 20 20 21 21 22 22 22 23 23 24 24 24 25 26 26 27 28
12 12 11 11 11 11 11 11 11 11 12 12 12 12 13 13 13 14 14 14 15 15 16 16 17 17 18 18 19 19 20 20 21 21 21 22 22 23 23 23 24 24 25 25 26 26 27 27 28
15 14 14 13 13 13 13 13 13 13 13 13 13 14 14 14 15 15 15 16 16 16 17 17 18 18 19 19 20 20 21 21 22 22 22 23 23 23 23 24 24 25 25 26 26 27 27 27 28
17 16 16 16 15 15 15 15 15 15 15 15 15 16 16 16 16 16 16 17 17 17 18 18 19 19 20 20 21 21 22 22 22 23 23 23 23 24 25 25 25 25 26 26 27 27 27 28 29
19 19 19 18 18 17 17 16 16 16 17 17 17 17 17 17 17 17 18 18 18 19 19 19 20 20 21 21 21 22 22 22 23 23 23 24 24 25 25 26 26 26 27 27 27 28 29 29 30
21 21 21 20 20 19 19 18 18 18 18 18 18 18 18 18 18 19 19 19 19 20 20 20 21 21 21 22 22 23 23 23 24 24 24 24 25 26 26 26 27 27 28 28 29 29 30 31 31
23 23 22 22 21 20 20 20 19 19 20 20 20 20 19 19 20 20 20 21 21 21 21 21 22 22 22 22 23 23 24 24 24 25 25 25 26 27 27 27 28 29 29 30 30 31 31 32 33
24 24 23 23 23 22 21 21 21 21 21 21 21 21 21 21 21 21 21 22 22 22 22 22 22 22 23 23 24 24 25 25 25 25 26 27 27 28 28 29 29 30 30 31 32 32 33 34 35
25 24 24 25 24 23 22 21 23 22 22 22 23 22 22 22 22 23 23 23 23 23 23 23 23 23 24 25 25 25 25 26 26 26 27 28 28 29 29 30 31 31 32 33 33 34 35 36 37
25 25 25 26 25 24 23 22 24 24 23 24 24 24 24 23 24 24 24 24 23 23 23 24 24 24 25 25 26 26 26 27 27 28 28 29 30 31 31 32 33 33 34 35 36 37 38 39 40
26 26 25 26 26 25 24 22 25 26 25 25 25 26 25 25 25 24 25 24 24 24 24 24 25 25 25 26 27 27 27 28 29 29 30 31 31 32 33 34 34 35 36 37 38 39 40 41 42
27 27 26 27 27 27 25 23 25 27 27 26 26 26 26 26 26 25 25 25 25 25 25 25 25 26 27 27 28 28 28 29 29 30 31 32 33 34 34 35 36 37 38 39 40 41 42 43 44
28 28 27 27 28 28 26 23 25 27 27 27 27 27 27 27 26 26 26 26 26 26 26 26 26 27 28 28 29 29 30 30 31 32 33 34 35 35 36 37 38 39 40 41 42 43 44 45 46
29 29 29 29 29 28 28 25 23 26 27 28 28 27 27 27 27 26 26 27 27 27 27 27 28 28 29 29 30 31 31 32 33 34 35 35 36 37 38 39 40 41 42 43 44 45 46 47 48
30 30 30 30 30 29 29 29 24 26 27 28 29 28 28 28 27 27 27 28 28 28 28 28 29 29 30 30 31 32 33 33 34 35 36 37 38 39 40 41 42 43 44 44 45 47 48 49 50
30 31 31 31 31 30 28 29 27 26 27 28 29 29 29 28 28 28 28 28 28 29 29 29 30 30 31 31 32 33 34 35 36 37 38 38 39 40 41 43 43 44 45 46 47 49 50 51 52
30 31 32 32 31 31 29 29 27 26 27 27 28 29 28 28 28 28 28 29 30 30 30 30 31 32 32 33 34 35 36 36 37 38 39 40 41 42 43 44 45 45 47 48 49 50 51 53 54
30 31 32 33 33 31 29 28 26 26 26 27 28 28 28 28 28 28 29 29 30 30 31 32 32 33 33 34 35 36 37 38 39 40 41 42 43 44 44 45 46 47 49 50 51 52 53 54 56
31 31 31 33 34 33 31 28 25 25 27 28 29 29 29 28 29 29 29 30 31 31 32 33 33 34 34 35 36 37 38 39 40 41 42 43 44 45 46 47 48 50 51 52 53 54 55 56 58
32 31 31 33 35 35 33 29 26 25 27 29 30 30 30 29 29 30 30 31 32 32 33 33 34 35 36 37 37 38 39 40 41 43 44 44 45 46 48 49 50 52 53 54 55 56 57 59 60
32 32 32 34 35 35 35 31 27 26 28 29 30 31 31 31 30 31 32 32 33 33 34 34 35 35 36 37 38 39 41 42 43 44 45 46 47 48 50 51 52 54 55 56 57 59 60 62 63
33 32 33 34 35 36 36 33 29 29 30 31 32 32 32 32 32 33 33 33 33 34 34 35 36 37 38 39 40 41 43 44 44 45 46 48 49 50 52 53 54 56 57 58 60 61 63 64 65
Wind_Direction
56 57 59 61 64 68 69 63 59 60 67 59 252 250 252 259 262 260 262 263 263 264 265 266 269 271 274 275 275 276 276 277 277 277 278 277 277 277 278 278 277 277 277 276 276 276 275 275 275
54 54 57 60 63 65 63 58 57 55 57 37 346 292 283 277 275 269 268 269 270 269 270 270 271 273 275 276 277 278 278 279 280 280 280 280 280 280 280 279 279 279 278 278 277 277 277 276 276
42 44 49 55 59 65 62 52 43 32 18 353 328 312 301 292 288 281 279 278 277 276 276 276 276 277 278 279 280 280 281 281 282 282 282 282 282 283 282 281 281 280 280 279 279 279 278 278 277
19 22 27 37 41 49 49 39 18 359 349 331 316 307 300 297 296 292 288 286 284 282 281 281 281 281 281 282 282 283 284 284 284 284 284 283 283 283 284 283 282 281 281 281 281 280 279 279 279
302 315 329 336 335 336 345 349 334 326 324 319 312 306 302 300 297 296 293 291 290 288 287 286 285 285 284 284 285 286 286 286 286 285 284 284 284 284 285 284 282 282 282 282 282 281 281 280 279
274 277 279 283 289 296 302 305 304 302 303 304 305 304 303 302 301 299 296 294 293 292 290 288 288 288 288 287 287 287 287 287 286 286 285 284 284 285 285 284 283 282 282 281 281 281 280 280 279
268 271 273 275 278 281 287 288 288 289 290 293 295 296 299 300 300 299 297 296 294 293 292 290 289 289 290 290 289 288 288 288 287 287 285 285 285 285 285 285 284 283 282 282 281 281 280 280 280
265 268 270 272 275 275 279 281 281 282 283 286 289 291 295 298 299 299 298 298 297 295 293 291 290 290 291 291 291 289 288 287 287 287 286 286 286 286 286 285 284 284 283 283 282 282 281 280 279
263 265 268 272 274 273 275 276 278 279 281 283 285 287 291 295 297 298 298 299 298 296 294 293 292 292 292 292 292 291 290 289 288 287 287 287 287 287 286 286 285 285 285 284 284 283 282 282 281
260 261 265 269 273 274 274 274 275 277 280 281 283 286 289 292 295 297 297 298 297 296 296 295 295 294 293 293 292 291 291 290 289 288 288 288 288 288 288 288 288 287 286 286 285 285 285 284 283
259 260 262 267 271 275 275 273 272 274 278 279 281 284 287 290 293 296 297 297 296 296 296 295 295 294 294 293 292 291 291 290 289 289 289 289 289 289 289 289 288 288 288 288 287 286 286 285 285
257 259 262 265 268 272 274 274 273 273 275 277 279 282 284 288 291 294 296 297 296 296 296 295 295 294 293 293 293 293 292 291 290 290 289 290 290 290 289 289 289 289 289 289 289 288 287 287 286
257 260 263 265 268 270 271 273 273 274 276 277 278 280 282 285 288 291 294 296 296 295 295 295 295 295 294 294 294 294 293 292 292 291 291 291 291 291 290 290 291 290 290 290 290 289 288 288 287
258 260 262 264 267 269 270 272 272 273 276 278 278 279 280 282 285 289 292 294 294 294 294 295 295 295 295 295 295 295 294 293 292 292 292 292 292 292 292 291 291 291 291 290 290 289 289 288 288
257 259 262 264 267 268 270 272 272 274 275 276 277 279 280 281 284 287 290 292 293 293 293 294 294 294 294 295 296 296 295 294 294 293 293 293 293 294 294 294 293 293 292 292 291 290 290 289 289
256 258 261 264 266 268 270 273 274 274 276 277 278 279 280 281 282 285 287 289 291 291 292 293 294 294 294 295 296 296 296 296 295 294 294 294 294 294 295 294 294 294 293 293 292 292 291 290 290
255 258 261 264 266 268 269 272 274 275 277 278 278 279 280 281 281 283 285 287 289 290 291 292 292 293 295 295 296 295 295 295 296 295 295 295 295 295 295 295 295 294 294 293 292 292 291 291 290
256 258 260 263 266 267 268 270 273 275 278 279 279 279 280 281 282 283 285 285 286 288 289 290 291 293 295 296 296 295 295 295 296 295 295 295 296 296 296 296 295 295 294 294 293 293 292 292 292
255 257 260 264 267 267 267 268 272 276 277 278 279 279 279 281 282 283 284 285 285 286 287 289 291 292 294 295 296 296 296 296 296 296 296 296 297 297 297 297 297 297 296 295 294 294 294 293 293
255 258 261 265 268 268 267 268 271 275 278 279 279 280 280 281 282 282 283 284 284 285 286 288 290 291 293 294 294 294 295 296 297 297 297 297 298 298 298 298 298 298 297 296 296 295 295 295 294
257 260 262 265 268 270 269 267 271 274 277 279 280 280 280 280 281 281 281 282 283 284 284 286 288 290 292 292 293 293 294 295 296 297 297 298 298 298 298 298 298 298 297 297 297 296 296 296 295
258 261 264 266 268 270 272 270 267 274 277 279 280 280 280 280 280 280 280 281 282 283 284 286 288 289 291 292 292 293 294 295 296 297 297 298 298 298 298 298 299 298 298 298 297 297 297 297 296
259 261 264 267 269 271 273 276 274 274 276 278 278 279 279 279 279 279 280 281 281 282 284 285 287 289 290 291 291 293 294 295 296 297 297 298 298 298 298 298 299 299 299 299 299 298 298 298 298
259 262 265 267 270 272 274 277 279 277 277 278 278 278 278 278 279 280 280 280 281 282 283 285 286 288 289 290 291 292 294 295 296 296 297 298 298 298 299 299 299 299 299 299 299 300 299 299 298
259 263 267 269 270 273 275 277 280 280 279 280 280 279 279 279 280 280 280 281 281 282 283 284 286 287 288 290 291 292 293 294 295 296 297 298 298 298 299 299 299 299 299 300 300 300 299 299 299
259 263 268 271 273 274 275 277 280 281 282 281 280 279 280 280 280 280 280 281 281 282 282 283 285 286 288 289 290 292 293 295 295 296 297 298 298 298 299 299 299 299 300 300 300 300 299 299 299
259 262 266 270 272 274 275 277 279 282 283 282 282 281 281 281 281 281 281 281 282 282 282 283 284 286 288 289 290 292 293 294 295 296 297 298 298 298 299 299 299 300 300 300 300 300 300 300 300
258 261 264 267 272 275 276 279 283 284 283 283 283 282 282 282 282 282 282 283 283 283 283 284 285 286 288 289 290 292 293 294 295 296 297 298 298 299 299 299 300 300 300 300 300 300 300 301 301
257 260 263 266 270 275 279 281 285 286 284 284 283 282 282 283 283 284 284 284 284 284 284 285 286 287 288 289 291 292 293 294 295 296 297 298 298 299 299 300 300 300 300 300 300 301 301 302 302
257 260 262 265 270 273 278 282 285 286 285 284 284 283 283 284 284 283 283 284 284 284 284 285 286 287 288 290 291 292 293 294 295 296 297 298 298 299 300 300 301 301 301 301 302 302 302 302 302
Height
5888 5887 5887 5887 5887 5886 5885 5885 5884 5883 5883 5883 5882 5882 5881 5881 5882 5883 5881 5879 5879 5878 5878 5878 5877 5877 5877 5876 5875 5875 5874 5874 5873 5873 5872 5871 5871 5870 5869 5868 5867 5867 5866 5865 5864 5863 5863 5862 5861
5888 5888 5888 5888 5887 5886 5886 5885 5884 5884 5883 5882 5882 5882 5881 5880 5880 5880 5878 5878 5877 5877 5876 5876 5876 5875 5875 5874 5873 5873 5872 5871 5871 5870 5869 5868 5868 5867 5866 5865 5864 5863 5862 5862 5861 5860 5859 5858 5858
5888 5888 5888 5888 5887 5886 5886 5885 5884 5883 5883 5882 5882 5881 5881 5880 5879 5878 5878 5877 5876 5875 5875 5874 5874 5873 5872 5872 5871 5870 5869 5869 5868 5867 5866 5865 5864 5863 5863 5862 5861 5860 5859 5858 5857 5856 5855 5854 5854
5889 5889 5889 5888 5887 5886 5885 5885 5884 5883 5883 5882 5881 5881 5880 5879 5878 5878 5876 5876 5875 5874 5873 5872 5872 5871 5870 5869 5869 5868 5867 5866 5865 5864 5863 5862 5861 5860 5859 5858 5857 5856 5855 5854 5853 5852 5851 5850 5849
5888 5888 5888 5887 5886 5885 5885 5884 5883 5882 5882 5881 5880 5880 5879 5878 5877 5876 5875 5874 5873 5872 5871 5871 5870 5869 5868 5867 5866 5865 5864 5863 5862 5861 5860 5859 5858 5856 5855 5854 5853 5852 5851 5850 5849 5848 5846 5846 5845
5888 5887 5887 5886 5885 5885 5884 5883 5882 5881 5881 5880 5879 5878 5878 5877 5876 5875 5874 5873 5872 5871 5870 5869 5868 5867 5866 5865 5863 5862 5861 5860 5859 5858 5857 5855 5854 5853 5852 5850 5849 5848 5847 5845 5844 5843 5842 5841 5840
5887 5886 5885 5885 5884 5883 5883 5882 5881 5880 5880 5879 5878 5877 5876 5875 5874 5873 5872 5871 5870 5869 5868 5866 5865 5864 5863 5862 5861 5859 5858 5857 5856 5854 5853 5852 5850 5849 5848 5846 5845 5844 5842 5841 5840 5838 5837 5836 5835
5884 5885 5883 5883 5882 5882 5881 5880 5880 5879 5878 5877 5876 5875 5874 5874 5872 5871 5870 5869 5868 5867 5865 5864 5863 5861 5860 5859 5858 5856 5855 5854 5852 5851 5849 5848 5846 5845 5843 5842 5840 5839 5838 5836 5835 5833 5832 5831 5829
5882 5883 5882 5881 5881 5880 5879 5879 5878 5877 5876 5875 5874 5873 5872 5871 5870 5869 5868 5867 5865 5864 5863 5861 5860 5858 5857 5856 5854 5853 5851 5850 5848 5847 5845 5844 5842 5841 5839 5837 5836 5834 5833 5831 5830 5828 5827 5825 5824
5880 5880 5879 5879 5878 5878 5877 5876 5875 5875 5874 5873 5872 5871 5869 5868 5867 5866 5865 5864 5863 5861 5860 5858 5857 5855 5854 5852 5851 5849 5848 5846 5844 5843 5841 5840 5838 5836 5835 5833 5831 5829 5828 5826 5824 5823 5821 5819 5818
5876 5876 5876 5876 5875 5875 5874 5873 5873 5872 5871 5870 5869 5868 5867 5866 5865 5863 5862 5861 5860 5858 5857 5855 5854 5852 5850 5849 5847 5845 5844 5842 5840 5839 5837 5835 5834 5832 5830 5828 5826 5824 5822 5821 5819 5817 5815 5813 5811
5873 5873 5872 5872 5872 5872 5871 5870 5870 5869 5868 5867 5866 5865 5864 5863 5861 5860 5859 5858 5856 5855 5854 5852 5850 5849 5847 5845 5843 5842 5840 5838 5836 5834 5832 5831 5829 5827 5825 5823 5821 5819 5817 5815 5813 5811 5809 5807 5805
5869 5869 5869 5868 5868 5868 5868 5867 5866 5865 5864 5863 5862 5861 5860 5859 5858 5857 5855 5854 5853 5851 5850 5848 5847 5845 5843 5841 5840 5838 5836 5834 5832 5830 5828 5826 5824 5822 5820 5818 5816 5814 5811 5809 5807 5805 5803 5801 5799
5864 5864 5864 5864 5864 5864 5864 5863 5862 5862 5860 5860 5859 5858 5857 5855 5854 5853 5852 5850 5849 5847 5846 5844 5843 5841 5839 5837 5835 5833 5831 5829 5827 5825 5823 5821 5819 5817 5815 5812 5810 5808 5806 5803 5801 5799 5796 5794 5792
5860 5860 5860 5860 5860 5860 5860 5859 5858 5857 5856 5855 5854 5853 5852 5851 5850 5849 5847 5846 5845 5843 5841 5840 5838 5836 5835 5833 5831 5829 5827 5825 5822 5820 5818 5815 5813 5811 5809 5806 5804 5802 5799 5797 5794 5792 5789 5787 5784
5855 5856 5856 5856 5855 5855 5857 5855 5853 5852 5851 5851 5850 5849 5848 5847 5846 5844 5843 5841 5840 5838 5837 5835 5834 5832 5830 5828 5826 5824 5822 5820 5817 5815 5812 5810 5808 5805 5803 5800 5798 5795 5793 5790 5788 5785 5782 5780 5777
5850 5851 5851 5851 5850 5850 5851 5851 5848 5847 5847 5846 5845 5844 5843 5842 5841 5839 5838 5836 5835 5834 5832 5830 5829 5827 5825 5823 5821 5819 5817 5814 5812 5809 5807 5804 5802 5799 5797 5794 5791 5789 5786 5783 5780 5778 5775 5772 5769
5846 5846 5845 5845 5845 5846 5846 5846 5843 5842 5842 5841 5840 5839 5838 5837 5835 5834 5833 5831 5830 5828 5827 5825 5824 5822 5820 5818 5816 5814 5811 5809 5806 5804 5801 5799 5796 5793 5790 5787 5785 5782 5779 5776 5773 5770 5767 5764 5761
5839 5840 5840 5840 5840 5840 5841 5841 5839 5837 5837 5836 5834 5833 5833 5832 5830 5829 5827 5826 5824 5823 5821 5820 5818 5816 5814 5812 5810 5808 5806 5803 5801 5798 5795 5792 5789 5786 5783 5780 5777 5774 5771 5768 5764 5761 5758 5755 5751
5834 5835 5835 5835 5834 5834 5835 5836 5834 5832 5831 5830 5829 5828 5827 5826 5825 5823 5822 5820 5819 5817 5816 5814 5812 5811 5809 5806 5804 5802 5799 5797 5794 5791 5788 5785 5782 5779 5776 5773 5770 5766 5763 5759 5756 5752 5749 5745 5741
5828 5829 5829 5829 5828 5828 5829 5831 5829 5827 5825 5824 5823 5822 5821 5819 5818 5817 5816 5814 5813 5811 5810 5808 5806 5804 5802 5800 5798 5795 5793 5790 5787 5785 5782 5778 5775 5772 5768 5765 5761 5758 5754 5750 5746 5742 5739 5735 5731
5822 5823 5823 5823 5823 5823 5823 5823 5825 5822 5820 5818 5817 5816 5814 5813 5812 5811 5809 5808 5806 5805 5803 5802 5800 5798 5796 5793 5791 5788 5786 5783 5780 5777 5774 5771 5767 5764 5760 5756 5753 5749 5745 5741 5737 5732 5728 5724 5720
5816 5816 5816 5816 5816 5817 5816 5816 5819 5816 5814 5812 5811 5809 5808 5807 5805 5804 5803 5801 5800 5798 5797 5795 5793 5791 5789 5786 5784 5781 5778 5776 5773 5769 5766 5763 5759 5755 5751 5747 5743 5739 5735 5730 5726 5722 5717 5712 5708
5809 5810 5810 5810 5809 5811 5811 5810 5811 5810 5808 5806 5804 5802 5801 5800 5799 5797 5796 5795 5793 5792 5790 5788 5786 5784 5782 5779 5776 5774 5771 5768 5764 5761 5758 5754 5750 5746 5742 5738 5733 5729 5724 5720 5715 5710 5705 5700 5695
5803 5804 5803 5803 5803 5804 5804 5803 5804 5802 5800 5799 5797 5796 5794 5793 5792 5790 5789 5788 5786 5784 5783 5781 5779 5776 5774 5771 5769 5766 5763 5759 5756 5752 5749 5745 5741 5737 5732 5728 5723 5718 5714 5709 5704 5699 5694 5688 5683
5796 5797 5798 5797 5797 5797 5796 5796 5798 5795 5793 5791 5790 5788 5787 5786 5784 5783 5782 5780 5779 5777 5775 5773 5771 5768 5766 5763 5760 5757 5754 5751 5747 5743 5740 5735 5731 5727 5722 5717 5712 5707 5702 5697 5692 5687 5681 5676 5670
5790 5790 5791 5790 5788 5788 5789 5790 5791 5789 5786 5784 5783 5781 5780 5779 5777 5776 5774 5773 5771 5769 5767 5765 5763 5760 5758 5755 5752 5749 5745 5742 5738 5734 5730 5725 5721 5716 5711 5706 5701 5696 5691 5685 5680 5674 5668 5662 5656
5783 5783 5783 5782 5781 5780 5781 5783 5784 5782 5779 5777 5775 5774 5772 5771 5770 5768 5766 5765 5763 5761 5759 5757 5754 5752 5749 5746 5743 5739 5736 5732 5728 5724 5720 5715 5710 5705 5700 5695 5690 5684 5678 5673 5667 5661 5655 5648 5641
5775 5776 5775 5775 5775 5774 5773 5777 5777 5775 5772 5770 5768 5766 5764 5764 5762 5760 5758 5756 5754 5752 5750 5748 5745 5743 5740 5736 5733 5730 5726 5722 5718 5714 5709 5704 5699 5694 5689 5683 5678 5672 5666 5659 5653 5647 5640 5633 5626
5767 5768 5768 5768 5767 5766 5766 5771 5769 5767 5764 5762 5760 5758 5757 5756 5754 5752 5750 5748 5746 5743 5741 5739 5736 5733 5730 5727 5723 5720 5716 5712 5707 5703 5698 5693 5687 5682 5677 5671 5665 5658 5652 5646 5639 5633 5625 5618 5610